Regional Weather Roundup
Issued by NWS State College, PA

Home | Current Version | Previous Version | Text Only | Print | Product List | Glossary On
Versions: 1 2 3 4 5 6 7 8 9 10 11 12 13 14 15 16 17 18 19 20 21 22 23 24 25 26 27 28 29 30 31 32 33 34 35 36 37 38 39 40 41 42 43 44 45 46 47 48 49 50
000
ASUS41 KCTP 161303
RWRCTP

REGIONAL WEATHER ROUNDUP
NATIONAL WEATHER SERVICE STATE COLLEGE PA
900 AM EDT WED APR 16 2014

Note: "fair" indicates few or no clouds below 12,000 feet with no
significant weather and/or obstructions to visibility.

* = STATION THAT DOES NOT REPORT PRECIPITATION /E.G. RAIN...SNOW...ETC/
    THUNDER OR FOG.

PAZ002>004-007>009-013>016-020>023-029>032-161400-
WESTERN PENNSYLVANIA

CITY           SKY/WX    TMP DP  RH WIND       PRES   REMARKS
ERIE           SUNNY     28  14  55 CALM      30.44R
MEADVILLE      SUNNY     25  14  63 CALM      30.40R
FRANKLIN*      SUNNY     25  10  54 N5        30.41R
NEW CASTLE     FAIR      26  15  63 CALM      30.46R
BEAVER COUNTY  SUNNY     28  18  64 NE3       30.43R
BUTLER*        SUNNY     27  12  54 NE7       30.45R
PITTSBURGH INT MOSUNNY   28  15  58 NE6       30.43R
PITTSBURGH     SUNNY     28  13  53 VRB7      30.42R
INDIANA*       SUNNY     25  12  58 NE3       30.42R
LATROBE        MOSUNNY   28  14  54 N7        30.45R
WASHINGTON CO* SUNNY     28  16  59 NE8       30.45R
$$

PAZ004>006-010>012-017>019-024>028-033>037-041-042-045-046-049>053-161400-
CENTRAL PENNSYLVANIA

CITY           SKY/WX    TMP DP  RH WIND       PRES   REMARKS
BRADFORD       SUNNY     21   8  57 N13       30.32R WCI   9
DUBOIS         MOSUNNY   25  12  58 N14       30.35R WCI  13
CLEARFIELD     SUNNY     25   8  48 N9        30.38R
JOHNSTOWN      SUNNY     21   8  57 NW12G20   30.33R WCI   9
ALTOONA        SUNNY     27  11  51 N8        30.37R
STATE COLLEGE  SUNNY     27   5  39 NW8       30.38R
WILLIAMSPORT   MOSUNNY   28  11  48 N10       30.39R
SELINSGROVE    SUNNY     30  13  49 NW13      30.41R
FT INDIANTOWN  SUNNY     28  10  47 NW12G25   30.37R
CAPITAL CITY   SUNNY     31   8  38 N15G22    30.39R
HARRISBURG     SUNNY     32   9  38 N13G25    30.39R
YORK           SUNNY     32  11  41 NW16      30.37R
$$

PAZ038>040-043-044-047-048-054-055-060>062-067>071-161400-
EASTERN PENNSYLVANIA

CITY           SKY/WX    TMP DP  RH WIND       PRES   REMARKS
SCRANTON       SUNNY     27  15  61 NW16      30.32R WCI  15
MOUNT POCONO   MOSUNNY   22  11  62 N20G30    30.22R WCI   7
ALLENTOWN      SUNNY     30  15  53 N16G23    30.33R
QUAKERTOWN*    SUNNY     28  14  54 N9G21     30.33R
READING        SUNNY     31  14  49 N14       30.35R
LANCASTER      SUNNY     30  10  43 N17G24    30.36R
COATESVILLE    NOT AVBL
POTTSTOWN      SUNNY     30  13  49 N14G25    30.35R
BLUE BELL      SUNNY     34  16  47 NW10G16   30.33R
DOYLESTOWN     SUNNY     30  14  51 NW14G24   30.31R
WILLOW GROVE   NOT AVBL
NORTH PHILA    SUNNY     35  14  42 NW17      30.34R
PHILADELPHIA   SUNNY     34  11  38 N18G31    30.33R
$$



USA.gov is the U.S. government's official web portal to all federal, state and local government web resources and services.